<?xml version="1.0"?>
<gpx xmlns="http://www.topografix.com/GPX/1/1" xmlns:xsi="http://www.w3.org/2001/XMLSchema-instance" version="1.1" creator="GPX RubyGem 1.0.0 -- http://dougfales.github.io/gpx/" xsi:schemaLocation="http://www.topografix.com/GPX/1/1 http://www.topografix.com/GPX/1/1/gpx.xsd">
  <metadata>
    <name/>
    <time>2026-05-09T20:35:56+00:00</time>
    <bound minlat="90.0" minlon="180.0" maxlat="-90.0" maxlon="-180.0"/>
  </metadata>
  <trk>
    <name/>
    <trkseg>
      <trkpt lat="49.324029" lon="8.192682">
        <time>1970-01-01T00:00:00+00:00</time>
        <ele>126.0</ele>
      </trkpt>
      <trkpt lat="49.323616" lon="8.192265">
        <time>1970-01-01T00:00:00+00:00</time>
        <ele>125.0</ele>
      </trkpt>
      <trkpt lat="49.323375" lon="8.192049">
        <time>1970-01-01T00:00:00+00:00</time>
        <ele>125.0</ele>
      </trkpt>
      <trkpt lat="49.322763" lon="8.19158">
        <time>1970-01-01T00:00:00+00:00</time>
        <ele>126.0</ele>
      </trkpt>
      <trkpt lat="49.322586" lon="8.191504">
        <time>1970-01-01T00:00:00+00:00</time>
        <ele>126.0</ele>
      </trkpt>
      <trkpt lat="49.32223" lon="8.191308">
        <time>1970-01-01T00:00:00+00:00</time>
        <ele>128.0</ele>
      </trkpt>
      <trkpt lat="49.322139" lon="8.191165">
        <time>1970-01-01T00:00:00+00:00</time>
        <ele>129.0</ele>
      </trkpt>
      <trkpt lat="49.322008" lon="8.191026">
        <time>1970-01-01T00:00:00+00:00</time>
        <ele>129.0</ele>
      </trkpt>
      <trkpt lat="49.32159" lon="8.190638">
        <time>1970-01-01T00:00:00+00:00</time>
        <ele>127.0</ele>
      </trkpt>
      <trkpt lat="49.321534" lon="8.190527">
        <time>1970-01-01T00:00:00+00:00</time>
        <ele>127.0</ele>
      </trkpt>
      <trkpt lat="49.320863" lon="8.189171">
        <time>1970-01-01T00:00:00+00:00</time>
        <ele>126.0</ele>
      </trkpt>
      <trkpt lat="49.320808" lon="8.188919">
        <time>1970-01-01T00:00:00+00:00</time>
        <ele>126.0</ele>
      </trkpt>
      <trkpt lat="49.320328" lon="8.18678">
        <time>1970-01-01T00:00:00+00:00</time>
        <ele>130.0</ele>
      </trkpt>
      <trkpt lat="49.320215" lon="8.186363">
        <time>1970-01-01T00:00:00+00:00</time>
        <ele>129.0</ele>
      </trkpt>
      <trkpt lat="49.320059" lon="8.185555">
        <time>1970-01-01T00:00:00+00:00</time>
        <ele>129.0</ele>
      </trkpt>
      <trkpt lat="49.319913" lon="8.184521">
        <time>1970-01-01T00:00:00+00:00</time>
        <ele>128.0</ele>
      </trkpt>
      <trkpt lat="49.319893" lon="8.184279">
        <time>1970-01-01T00:00:00+00:00</time>
        <ele>128.0</ele>
      </trkpt>
      <trkpt lat="49.319922" lon="8.183277">
        <time>1970-01-01T00:00:00+00:00</time>
        <ele>129.0</ele>
      </trkpt>
      <trkpt lat="49.319824" lon="8.181279">
        <time>1970-01-01T00:00:00+00:00</time>
        <ele>129.0</ele>
      </trkpt>
      <trkpt lat="49.319158" lon="8.181359">
        <time>1970-01-01T00:00:00+00:00</time>
        <ele>128.0</ele>
      </trkpt>
      <trkpt lat="49.317357" lon="8.181606">
        <time>1970-01-01T00:00:00+00:00</time>
        <ele>126.0</ele>
      </trkpt>
      <trkpt lat="49.317086" lon="8.180545">
        <time>1970-01-01T00:00:00+00:00</time>
        <ele>127.0</ele>
      </trkpt>
      <trkpt lat="49.316962" lon="8.179867">
        <time>1970-01-01T00:00:00+00:00</time>
        <ele>130.0</ele>
      </trkpt>
      <trkpt lat="49.31689" lon="8.179483">
        <time>1970-01-01T00:00:00+00:00</time>
        <ele>130.0</ele>
      </trkpt>
      <trkpt lat="49.31689" lon="8.179483">
        <time>1970-01-01T00:00:00+00:00</time>
        <ele>130.0</ele>
      </trkpt>
      <trkpt lat="49.316962" lon="8.179867">
        <time>1970-01-01T00:00:00+00:00</time>
        <ele>130.0</ele>
      </trkpt>
      <trkpt lat="49.317086" lon="8.180545">
        <time>1970-01-01T00:00:00+00:00</time>
        <ele>127.0</ele>
      </trkpt>
      <trkpt lat="49.317357" lon="8.181606">
        <time>1970-01-01T00:00:00+00:00</time>
        <ele>126.0</ele>
      </trkpt>
      <trkpt lat="49.319158" lon="8.181359">
        <time>1970-01-01T00:00:00+00:00</time>
        <ele>128.0</ele>
      </trkpt>
      <trkpt lat="49.319824" lon="8.181279">
        <time>1970-01-01T00:00:00+00:00</time>
        <ele>129.0</ele>
      </trkpt>
      <trkpt lat="49.319922" lon="8.183277">
        <time>1970-01-01T00:00:00+00:00</time>
        <ele>129.0</ele>
      </trkpt>
      <trkpt lat="49.319893" lon="8.184279">
        <time>1970-01-01T00:00:00+00:00</time>
        <ele>128.0</ele>
      </trkpt>
      <trkpt lat="49.319913" lon="8.184521">
        <time>1970-01-01T00:00:00+00:00</time>
        <ele>128.0</ele>
      </trkpt>
      <trkpt lat="49.320059" lon="8.185555">
        <time>1970-01-01T00:00:00+00:00</time>
        <ele>129.0</ele>
      </trkpt>
      <trkpt lat="49.320215" lon="8.186363">
        <time>1970-01-01T00:00:00+00:00</time>
        <ele>129.0</ele>
      </trkpt>
      <trkpt lat="49.320328" lon="8.18678">
        <time>1970-01-01T00:00:00+00:00</time>
        <ele>130.0</ele>
      </trkpt>
      <trkpt lat="49.320808" lon="8.188919">
        <time>1970-01-01T00:00:00+00:00</time>
        <ele>126.0</ele>
      </trkpt>
      <trkpt lat="49.320863" lon="8.189171">
        <time>1970-01-01T00:00:00+00:00</time>
        <ele>126.0</ele>
      </trkpt>
      <trkpt lat="49.321534" lon="8.190527">
        <time>1970-01-01T00:00:00+00:00</time>
        <ele>127.0</ele>
      </trkpt>
      <trkpt lat="49.32159" lon="8.190638">
        <time>1970-01-01T00:00:00+00:00</time>
        <ele>127.0</ele>
      </trkpt>
      <trkpt lat="49.322008" lon="8.191026">
        <time>1970-01-01T00:00:00+00:00</time>
        <ele>129.0</ele>
      </trkpt>
      <trkpt lat="49.322139" lon="8.191165">
        <time>1970-01-01T00:00:00+00:00</time>
        <ele>129.0</ele>
      </trkpt>
      <trkpt lat="49.32223" lon="8.191308">
        <time>1970-01-01T00:00:00+00:00</time>
        <ele>128.0</ele>
      </trkpt>
      <trkpt lat="49.322586" lon="8.191504">
        <time>1970-01-01T00:00:00+00:00</time>
        <ele>126.0</ele>
      </trkpt>
      <trkpt lat="49.322763" lon="8.19158">
        <time>1970-01-01T00:00:00+00:00</time>
        <ele>126.0</ele>
      </trkpt>
      <trkpt lat="49.323375" lon="8.192049">
        <time>1970-01-01T00:00:00+00:00</time>
        <ele>125.0</ele>
      </trkpt>
      <trkpt lat="49.323616" lon="8.192265">
        <time>1970-01-01T00:00:00+00:00</time>
        <ele>125.0</ele>
      </trkpt>
      <trkpt lat="49.324029" lon="8.192682">
        <time>1970-01-01T00:00:00+00:00</time>
        <ele>126.0</ele>
      </trkpt>
    </trkseg>
  </trk>
</gpx>
